Погода в Великом Самборе

Украина / Сумская область     51°03′17″N   33°08′05″E
темп.,
°C
ветер,
м/с
пор.,
м/с
влажн.,
%
обл.,
%
осадки,
мм/ч
давл.,
гПа
погр.,
м
18 мая, вт
вт1800:00+15ююз3697100 0.0 1004137
03:00+14юв1196100 0.0 100411
06:00+14юв2296100 0.0 100466
09:00+17юв3386100 0.0 1003556
12:00+19ююв4575100 1.3 1003902
15:00+20ююв4565100 1.5 10011165
18:00+18ююв5883100 2.1 1000679
21:00+15ююв51192100 3.8 1001374
19 мая, ср
ср1900:00+13юв5109586 0.0 1001334
03:00+12юв5119846 0.0 1001316
06:00+12ююв61095100 0.0 1002475
09:00+15ююв578288 0.0 1003603
12:00+18ююв566968 0.7 10031287
15:00+19ююв456599 2.1 10031259
18:00+17юв2376100 1.2 1003462
21:00+13ю1190100 4.6 100321
20 мая, чт
чт2000:00+12ю1193100 0.6 100322
03:00+11з4799100 1.4 1003245
06:00+11з5897100 0.0 1004400
09:00+11зюз5795100 0.1 1005483
12:00+11зюз5793100 0.2 1007729
15:00+11зюз5896100 0.6 1009559
18:00+13з4687100 0.1 1010613
21:00+10зюз2392100 0.2 101129
21 мая, пт
пт2100:00+9зсз2290100 0.0 101228
03:00+9ссз2288100 0.0 101320
06:00+10всв238899 0.0 1014105
09:00+13всв4775100 0.0 1014446
12:00+14всв3578100 0.6 1015728
15:00+11св4892100 2.9 1015376
18:00+11св4895100 0.8 1015313
21:00+11ссв4896100 1.1 1015265
22 мая, сб
сб2200:00+11ссв41095100 0.1 1015308
03:00+10с410969 0.1 1014242
06:00+10ссв51196100 0.0 1014293
09:00+13ссв6986100 0.0 1015445
12:00+17ссв5669100 0.0 1015919
15:00+19ссв4568100 0.0 10151131
18:00+17всв368083 0.0 1014310
21:00+14всв478719 0.1 1015112